Weather in Amarante

Portugal     41°16′19″N   8°05′06″W
temp.,
°C
wind,
m/s
gust,
m/s
humid.,
%
clouds,
%
prec.,
mm/h
press.,
hPa
HPBL,
m
9 may, sun
sun901:00+8se219161 0.0 100816
04:00+9se2286100 0.0 100552
07:00+9ese0192100 2.6 100361
10:00+9sw2494100 9.9 1005513
13:00+11wsw358881 11.3 1006581
16:00+12w697644 2.6 10071442
19:00+10w488429 3.7 1008957
22:00+7ssw229750 1.0 101146
10 may, mon
mon1001:00+6ssw229719 2.2 101132
04:00+6ssw229892 0.8 101151
07:00+8ssw139299 1.3 1010136
10:00+10sw3583100 1.2 10111071
13:00+8w2695100 4.8 1011541
16:00+10w4780100 1.9 10111321
19:00+8w489237 4.6 1013776
22:00+6wsw269581 1.3 1016381
11 may, tue
tue1101:00+6wsw239885 2.4 1018142
04:00+4sw229936 1.3 101937
07:00+5ssw129855 1.9 102072
10:00+9w368343 0.9 1021850
13:00+11w367785 2.3 10221152
16:00+14w674828 0.3 10201995
19:00+12wsw476737 0.4 10201297
22:00+9sw2890100 0.3 1021596
12 may, wed
wed1201:00+9ssw31096100 2.1 1019818
04:00+10wsw41298100 1.3 10171132
07:00+10wsw4109693 2.3 1017821
10:00+11wsw488597 0.5 10181186
13:00+14wsw697895 1.5 10171251
16:00+13w698085 1.1 10181259
19:00+10wnw588454 1.6 10201055
22:00+7w229579 0.3 102245
13 may, thu
thu1301:00+6wsw119540 0.4 102218
04:00+8w1188100 0.0 102034
07:00+8ssw1189100 0.0 102057
10:00+9sse1284100 0.1 1018194
13:00+9se1394100 1.1 1017185
16:00+11w1494100 1.1 1015407
19:00+12wsw269496 2.3 1014679
22:00+11wsw2399100 0.9 1015120